Location: Cambridge (historical)
(38.6883°N, 119.0140°W)
Time: 05:32:03
(UTC+00:00)

VELOX 1 - Pass Details

Date: 02 October 2021
Orbit: 627 x 642 km, 98.3° (Epoch: 23 October)

Event Time Altitude Azimuth Distance (km) Brightness Sun altitude
Exits shadow 11:49:19 12° 342° (NNW) 1,859 ? -24.8°
Drops below altitude 10° 11:49:41 10° 343° (NNW) 2,011 ? -24.7°
Sets 11:51:54 0° 345° (NNW) 2,922 ? -24.3°
